This is the latest recevied weather packets stored in our database for station/object W1SCW. If no packets are shown the sender has not sent any weather packets the latest 10 day(s).
| Time | Temp. | Humidity | Pressure | Rain* | Wind** | Luminosity | Snow |
|---|---|---|---|---|---|---|---|
| 1777227641 | 28.89° C | 74% | 1008.3 hPa | 0 mm | - | 362 W/m² | - |
| 1777227337 | 28.89° C | 75% | 1008.4 hPa | 0 mm | - | 302 W/m² | - |
| 1777227034 | 28.89° C | 75% | 1008.5 hPa | 0 mm | - | 293 W/m² | - |
| 1777226734 | 28.33° C | 75% | 1008.6 hPa | 0 mm | - | 323 W/m² | - |
| 1777226429 | 28.33° C | 76% | 1008.6 hPa | 0 mm | - | 314 W/m² | - |
| 1777226125 | 27.78° C | 77% | 1008.6 hPa | 0 mm | - | 357 W/m² | - |
| 1777225821 | 27.78° C | 78% | 1008.5 hPa | 0 mm | - | 183 W/m² | - |
| 1777225517 | 27.78° C | 78% | 1008.8 hPa | 0 mm | - | 154 W/m² | - |
| 1777225215 | 27.78° C | 78% | 1008.7 hPa | 0 mm | - | 164 W/m² | - |
| 1777224911 | 27.78° C | 79% | 1008.6 hPa | 0 mm | - | 153 W/m² | - |
| 1777224609 | 27.78° C | 78% | 1008.6 hPa | 0 mm | - | 139 W/m² | - |
| 1777224303 | 27.78° C | 78% | 1008.6 hPa | 0 mm | - | 117 W/m² | - |
| 1777223999 | 27.78° C | 77% | 1008.9 hPa | 0 mm | - | 148 W/m² | - |
| 1777223697 | 27.78° C | 76% | 1008.7 hPa | 0 mm | - | 140 W/m² | - |
| 1777223392 | 27.78° C | 76% | 1008.7 hPa | 0 mm | - | 107 W/m² | - |
| 1777223091 | 27.78° C | 76% | 1008.7 hPa | 0 mm | - | 98 W/m² | - |
| 1777222786 | 27.78° C | 76% | 1008.8 hPa | 0 mm | - | 108 W/m² | - |
| 1777222485 | 27.78° C | 76% | 1008.7 hPa | 0 mm | - | 110 W/m² | - |
| 1777222182 | 27.78° C | 77% | 1008.7 hPa | 0 mm | - | 143 W/m² | - |
| 1777221880 | 28.33° C | 76% | 1008.7 hPa | 0 mm | - | 138 W/m² | - |
| 1777221579 | 28.89° C | 74% | 1008.5 hPa | 0 mm | - | 183 W/m² | - |
| 1777221277 | 28.89° C | 75% | 1008.4 hPa | 0 mm | - | 249 W/m² | - |
| 1777220974 | 28.33° C | 75% | 1008.7 hPa | 0 mm | - | 329 W/m² | - |
| 1777220669 | 28.33° C | 75% | 1008.4 hPa | 0 mm | - | 292 W/m² | - |
| 1777220366 | 28.33° C | 76% | 1008.5 hPa | 0 mm | - | 515 W/m² | - |
* Rain latest hour (hover to see other rain measurements)
** Current wind speed in m/s (hover to see current wind gust speed)